Find Starlink 35214

NORAD ID: 65747 Int'l Des: 2025-216 Owner: SPXS Country: US Constellation: starlink operational
LEOCIRCULAR

Current View

Loading 3D Globe...

About Starlink 35214

Starlink 35214 (NORAD 65747) is a starlink constellation satellite (v2 mini) launched Sep 25, 2025 by SPXS of US. It operates in LEO, CIRCULAR orbit with a mass of 575.00 kg.

Upcoming Passes

Passes for default location (London). Set your location on the main map for personalized predictions.

Altitude History

Loading altitude history...

Two-Line Element Set

1 65747U 25216P 26237.37607786 .00012909 00000-0 39253-3 0 9995
2 65747 53.1562 267.6999 0000957 78.6894 281.4216 15.34398580 52393
Epoch: Aug 25, 2026 • Age: 26 hours

Current Status

Altitude 475.6 km
Apogee / Perigee N/A
Velocity 7.63 km/s
Sub-Earth Point -38.20°S, 21.74°W
Launch Date Sep 25, 2025
Age 0.9 years
Type internet

Technical Details

Classification Payload
Mass 575.00 kg
Dry Mass 530.00 kg
Total Mass 575.00 kg
Length 0.30 m
Diameter 4.10 m
Span 29.00 m
Shape Box + pan
Manufacturer SPXS
Bus Type Starlink V2MO
Phase Status In Orbit
Owner/State SPXS/US

Most Searched